Tracking 30918 objects as of 3-Jul-2025
HD Live streaming from Space Station
objects crossing your sky now

JILIN-01 KUANFU 02B 1

Track JILIN-01 KUANFU 02B 1 now!
10-day predictions


NORAD ID: 61189
Int'l Code: 2024-169A
Perigee: 539.8 km
Apogee: 547.6 km
Inclination: 97.6 °
Period: 95.4 minutes
Semi major axis: 6914 km
RCS: Unknown
Launch date: September 20, 2024
Source: People's Republic of China (PRC)
Launch site: Taiyaun Space Center, China (TSC)
Your satellite tracking list
COSMOS 718
Track 1 satellite(s)




NASA's NSSDC Master Catalog

Two Line Element Set (TLE):
1 61189U 24169A   25183.87093220  .00003820  00000-0  23979-3 0  9993
2 61189  97.5830 272.7579 0005622  29.3258 330.8286 15.09876432 43127
Source of the keplerian elements: AFSPC